Weather Roundup
Issued by NWS Springfield, MO

Home | Current Version | Previous Version | Text Only | Print | Product List | Glossary On
Versions: 1 2 3 4 5 6 7 8 9 10 11 12 13 14 15 16 17 18 19 20 21 22 23 24 25 26 27 28 29 30 31 32 33 34 35 36 37 38 39 40 41 42 43 44 45 46 47 48 49 50
000
NZUS99 KSGF 260857
HRRSGF

HOURLY WEATHER
NATIONAL WEATHER SERVICE SPRINGFIELD MO
400 AM CDT MON JUN 26 2017

......SGF CWA......

CITY           SKY/WX    TMP DP  RH WIND       PRES   REMARKS
SPRINGFIELD    CLOUDY    65  57  75 N8        30.25R
JOPLIN         CLOUDY    66  57  72 NE5       30.25S
WEST PLAINS    CLOUDY    66  50  56 N6        30.24S
ROLLA          CLOUDY    59  50  72 CALM      30.22F

......SURROUNDING SGF CWA......

CITY           SKY/WX    TMP DP  RH WIND       PRES   REMARKS
CHANUTE          N/A    N/A N/A N/A MISG      30.24S
PARSONS        CLOUDY    66  56  70 CALM      30.25R
COFFEYVILLE    CLOUDY    65  57  75 NE8       30.23R
EMPORIA        CLOUDY    60  59  96 SE5       30.23F
HARRISON AR    CLOUDY    64  60  87 CALM      30.24S

......KANSAS AND MISSOURI......

CITY           SKY/WX    TMP DP  RH WIND       PRES   REMARKS
KANSAS CTY INT CLEAR     51  50  96 SW3       30.22F
SEDALIA        CLEAR     54  53  97 SW6       30.24S
ST JOSEPH      CLEAR     53  53 100 S6        30.21S
ST LOUIS       CLEAR     61  49  64 CALM      30.21R
WICHITA        CLOUDY    63  54  72 E7        30.22F
TOPEKA         CLEAR     54  54 100 CALM      30.22F
OLATHE         CLEAR     53  53 100 CALM      30.23S

......TENNESSEE......

CITY           SKY/WX    TMP DP  RH WIND       PRES   REMARKS
MEMPHIS        NOT AVBL
NASHVILLE      MOCLDY    61  57  87 CALM      30.16S

......ARKANSAS.......

CITY           SKY/WX    TMP DP  RH WIND       PRES   REMARKS
FAYETTEVILLE   CLOUDY    65  62  90 CALM      30.23S
FT SMITH       CLOUDY    71  64  78 E3        30.19S
LITTLE ROCK    CLOUDY    67  65  93 SW5       30.19S

......OKLAHOMA.......

CITY           SKY/WX    TMP DP  RH WIND       PRES   REMARKS
TULSA          MOCLDY    67  62  84 NW3       30.18S
PONCA CITY     CLOUDY    68  54  60 E8        30.20S
MCALESTER      CLOUDY    73  61  65 VRB3      30.19F
OKLAHOMA CITY  MOCLDY    67  56  67 SE6       30.18F

......IOWA............

CITY           SKY/WX    TMP DP  RH WIND       PRES   REMARKS
DES MOINES     NOT AVBL
QUAD CITIES    CLEAR     51  46  83 CALM      30.15R

......ILLINOIS........

CITY           SKY/WX    TMP DP  RH WIND       PRES   REMARKS
QUINCY         NOT AVBL
CHICAGO        CLEAR     54  49  83 W6        30.09S




USA.gov is the U.S. government's official web portal to all federal, state and local government web resources and services.